map of BVA home
BVA - Airport
Location
City:  Beauvais, Picardie (Picardy), France
Near (Alt.):Paris
Name:Tillé
ICAO:LFOB
IATA:BVA

Details
Type:Airport (Aerodrome, Airfield)
Use:Public/Civil
Latitude:49°27'16"N (49.454444)
Longitude:2°06'46"E (2.112778)
Elevation:359 ft (109 m)
Variation:0.61°E (WMM2015 magnetic declination)
0.14° annual change
Runways:3
Longest:7972 × 148 ft (2430 × 45 m), paved

Time
Time Zone:UTC+1 (DST+2)
Local Time:

Weather
METAR:LFOB 181100Z AUTO 14010KT CAVOK 08/05 Q1017 NOSIG
TAF:LFOB 181100Z 1812/1912 15012KT CAVOK
TEMPO 1812/1820 15015G25KT
FM182200 20015KT 4000 RA OVC013
TEMPO 1822/1901 2000 DZRA OVC003
BECMG 1901/1903 9999 NSW
BECMG 1905/1908 BKN018

Related Locations
Nearby:
Farthest:CHT: 12034 mi / 19367 km
Waitangi [Tuuta], CIT, NZ

Find:

   beyond  
but within

Other Information
Maps:
NOTAMs:
Links:
Sources:

  
  • flag of France
  • flag of Picardie (Picardy)
  

Sectional Chart

Flight Planning
at skyvector.com

Satellite Image

Google Maps Satellite view

 

Copyright © 2004-2018 Karl L. Swartz. All rights reserved.
The Great Circle Mapper name and logo are trademarks of the Great Circle Mapper.
All other trademarks mentioned herein belong to their respective owners.
Please see credits for attibutions and further copyright information.

  Follow gcmap on Facebook Follow gcmap on Twitter Follow gcmap on Google+ GCmap on LinkedIn

hCard Microformat

Geo Microformat